TimePDT,TemperatureF,Dew PointF,Humidity,Sea Level PressureIn,VisibilityMPH,Wind Direction,Wind SpeedMPH,Gust SpeedMPH,PrecipitationIn,Events,Conditions,WindDirDegrees,DateUTC
12:15 AM,55.4,51.8,88,30.03,10.0,Calm,Calm,-,N/A,,Overcast,0,2013-09-18 07:15:00
12:35 AM,55.4,51.8,88,30.03,10.0,Calm,Calm,-,N/A,,Mostly Cloudy,0,2013-09-18 07:35:00
12:55 AM,55.4,51.8,88,30.04,10.0,Calm,Calm,-,N/A,,Overcast,0,2013-09-18 07:55:00
1:15 AM,55.4,51.8,88,30.04,10.0,Calm,Calm,-,N/A,,Overcast,0,2013-09-18 08:15:00
1:35 AM,55.4,51.8,88,30.05,10.0,Calm,Calm,-,N/A,,Overcast,0,2013-09-18 08:35:00
1:55 AM,55.4,51.8,88,30.05,10.0,Calm,Calm,-,N/A,,Mostly Cloudy,0,2013-09-18 08:55:00
2:15 AM,55.4,51.8,88,30.05,10.0,Calm,Calm,-,N/A,,Overcast,0,2013-09-18 09:15:00
2:35 AM,55.4,51.8,88,30.05,10.0,Calm,Calm,-,N/A,,Overcast,0,2013-09-18 09:35:00
2:55 AM,55.4,51.8,88,30.05,10.0,SE,3.5,-,N/A,,Overcast,130,2013-09-18 09:55:00
3:15 AM,55.4,51.8,88,30.06,10.0,SSE,4.6,-,N/A,,Overcast,160,2013-09-18 10:15:00
3:35 AM,55.4,51.8,88,30.06,10.0,SSE,3.5,-,N/A,,Overcast,150,2013-09-18 10:35:00
3:55 AM,55.4,51.8,88,30.06,9.0,ESE,3.5,-,0.02,,Overcast,120,2013-09-18 10:55:00
4:15 AM,55.4,51.8,88,30.06,10.0,Calm,Calm,-,N/A,,Overcast,0,2013-09-18 11:15:00
4:35 AM,55.4,51.8,88,30.07,10.0,Calm,Calm,-,N/A,,Mostly Cloudy,0,2013-09-18 11:35:00
4:55 AM,55.4,51.8,88,30.07,10.0,Calm,Calm,-,N/A,,Mostly Cloudy,0,2013-09-18 11:55:00
5:15 AM,53.6,51.8,94,30.08,9.0,Calm,Calm,-,N/A,,Overcast,0,2013-09-18 12:15:00
5:35 AM,53.6,51.8,94,30.08,10.0,Calm,Calm,-,N/A,,Overcast,0,2013-09-18 12:35:00
5:55 AM,53.6,51.8,94,30.08,10.0,Calm,Calm,-,N/A,,Mostly Cloudy,0,2013-09-18 12:55:00
6:15 AM,53.6,50.0,88,30.08,10.0,Calm,Calm,-,N/A,,Mostly Cloudy,0,2013-09-18 13:15:00
6:35 AM,53.6,50.0,88,30.08,10.0,ESE,4.6,-,N/A,,Overcast,120,2013-09-18 13:35:00
6:55 AM,55.4,51.8,88,30.09,10.0,SE,5.8,-,N/A,,Overcast,140,2013-09-18 13:55:00
7:15 AM,55.4,51.8,88,30.09,7.0,SSE,4.6,-,N/A,,Overcast,160,2013-09-18 14:15:00
7:35 AM,55.4,51.8,88,30.09,10.0,SE,5.8,-,N/A,,Overcast,140,2013-09-18 14:35:00
7:55 AM,55.4,51.8,88,30.10,10.0,SSE,5.8,-,N/A,,Overcast,150,2013-09-18 14:55:00
8:15 AM,55.4,51.8,88,30.10,10.0,SE,5.8,-,N/A,,Overcast,140,2013-09-18 15:15:00
8:35 AM,55.4,51.8,88,30.11,10.0,SSE,5.8,-,N/A,,Overcast,150,2013-09-18 15:35:00
8:55 AM,57.2,51.8,82,30.11,10.0,SSE,4.6,-,N/A,,Overcast,150,2013-09-18 15:55:00
9:15 AM,57.2,51.8,82,30.11,10.0,SSE,5.8,-,N/A,,Mostly Cloudy,160,2013-09-18 16:15:00
9:35 AM,59.0,51.8,77,30.11,10.0,SSE,4.6,-,N/A,,Partly Cloudy,150,2013-09-18 16:35:00
9:55 AM,60.8,51.8,72,30.12,10.0,SSE,4.6,-,N/A,,Scattered Clouds,160,2013-09-18 16:55:00
10:15 AM,60.8,53.6,77,30.13,10.0,Calm,Calm,-,N/A,,Mostly Cloudy,0,2013-09-18 17:15:00
10:35 AM,60.8,51.8,72,30.13,10.0,Calm,Calm,-,N/A,,Overcast,0,2013-09-18 17:35:00
10:55 AM,60.8,51.8,72,30.13,10.0,Calm,Calm,-,N/A,,Mostly Cloudy,0,2013-09-18 17:55:00
11:15 AM,62.6,51.8,68,30.12,10.0,Calm,Calm,-,N/A,,Scattered Clouds,0,2013-09-18 18:15:00
11:35 AM,62.6,51.8,68,30.12,10.0,Calm,Calm,-,N/A,,Mostly Cloudy,0,2013-09-18 18:35:00
11:55 AM,64.4,51.8,64,30.12,10.0,West,3.5,-,N/A,,Scattered Clouds,280,2013-09-18 18:55:00
12:15 PM,64.4,51.8,64,30.12,10.0,West,3.5,-,N/A,,Partly Cloudy,270,2013-09-18 19:15:00
12:35 PM,64.4,50.0,59,30.12,10.0,Calm,Calm,-,N/A,,Scattered Clouds,0,2013-09-18 19:35:00
12:55 PM,68.0,51.8,56,30.12,10.0,WSW,4.6,-,N/A,,Mostly Cloudy,240,2013-09-18 19:55:00
1:15 PM,66.2,48.2,52,30.12,10.0,Calm,Calm,-,N/A,,Partly Cloudy,0,2013-09-18 20:15:00
1:35 PM,66.2,48.2,52,30.11,10.0,Calm,Calm,-,N/A,,Partly Cloudy,0,2013-09-18 20:35:00
1:55 PM,69.8,48.2,46,30.11,10.0,WSW,3.5,-,N/A,,Mostly Cloudy,250,2013-09-18 20:55:00
2:15 PM,69.8,48.2,46,30.10,10.0,NNW,3.5,-,N/A,,Partly Cloudy,340,2013-09-18 21:15:00
2:35 PM,69.8,48.2,46,30.10,10.0,NNW,3.5,-,N/A,,Clear,340,2013-09-18 21:35:00
2:55 PM,69.8,48.2,46,30.09,10.0,Calm,Calm,-,N/A,,Partly Cloudy,0,2013-09-18 21:55:00
3:15 PM,69.8,48.2,46,30.09,10.0,Calm,Calm,-,N/A,,Mostly Cloudy,0,2013-09-18 22:15:00
3:35 PM,71.6,48.2,43,30.09,10.0,Calm,Calm,-,N/A,,Mostly Cloudy,0,2013-09-18 22:35:00
3:55 PM,71.6,48.2,43,30.08,10.0,NNE,6.9,-,N/A,,Scattered Clouds,30,2013-09-18 22:55:00
4:15 PM,71.6,48.2,43,30.08,10.0,NNE,6.9,-,N/A,,Partly Cloudy,20,2013-09-18 23:15:00
4:35 PM,69.8,46.4,43,30.08,10.0,North,5.8,-,N/A,,Mostly Cloudy,360,2013-09-18 23:35:00
4:55 PM,69.8,46.4,43,30.08,10.0,North,5.8,-,N/A,,Overcast,10,2013-09-18 23:55:00
5:15 PM,68.0,46.4,46,30.08,10.0,NNE,4.6,-,N/A,,Overcast,20,2013-09-19 00:15:00
5:35 PM,68.0,46.4,46,30.08,10.0,North,5.8,-,N/A,,Overcast,350,2013-09-19 00:35:00
5:55 PM,69.8,48.2,46,30.08,10.0,NNW,3.5,-,N/A,,Overcast,340,2013-09-19 00:55:00
6:15 PM,68.0,48.2,49,30.08,10.0,North,4.6,-,N/A,,Overcast,10,2013-09-19 01:15:00
6:35 PM,66.2,48.2,52,30.08,10.0,North,4.6,-,N/A,,Mostly Cloudy,10,2013-09-19 01:35:00
6:55 PM,66.2,50.0,56,30.07,10.0,North,3.5,-,N/A,,Partly Cloudy,360,2013-09-19 01:55:00
7:15 PM,64.4,50.0,59,30.07,10.0,Calm,Calm,-,N/A,,Clear,0,2013-09-19 02:15:00
7:35 PM,62.6,51.8,68,30.07,5.0,Calm,Calm,-,N/A,,Clear,0,2013-09-19 02:35:00
7:55 PM,60.8,51.8,72,30.08,10.0,Calm,Calm,-,N/A,,Clear,0,2013-09-19 02:55:00
8:15 PM,59.0,50.0,72,30.08,10.0,Calm,Calm,-,N/A,,Clear,0,2013-09-19 03:15:00
8:35 PM,57.2,50.0,77,30.09,10.0,Calm,Calm,-,N/A,,Clear,0,2013-09-19 03:35:00
8:55 PM,57.2,50.0,77,30.09,10.0,Calm,Calm,-,N/A,,Clear,0,2013-09-19 03:55:00
9:15 PM,55.4,48.2,77,30.09,10.0,Calm,Calm,-,N/A,,Clear,0,2013-09-19 04:15:00
9:35 PM,55.4,48.2,77,30.09,10.0,Calm,Calm,-,N/A,,Clear,0,2013-09-19 04:35:00
9:55 PM,55.4,48.2,77,30.09,10.0,Calm,Calm,-,N/A,,Clear,0,2013-09-19 04:55:00
10:15 PM,53.6,48.2,82,30.08,10.0,Calm,Calm,-,N/A,,Clear,0,2013-09-19 05:15:00
10:35 PM,53.6,48.2,82,30.08,10.0,Calm,Calm,-,N/A,,Clear,0,2013-09-19 05:35:00
10:55 PM,53.6,48.2,82,30.07,10.0,Calm,Calm,-,N/A,,Clear,0,2013-09-19 05:55:00
11:15 PM,51.8,48.2,88,30.06,10.0,Calm,Calm,-,N/A,,Clear,0,2013-09-19 06:15:00
11:35 PM,51.8,46.4,82,30.06,10.0,Calm,Calm,-,N/A,,Clear,0,2013-09-19 06:35:00
11:55 PM,51.8,46.4,82,30.06,10.0,Calm,Calm,-,N/A,,Clear,0,2013-09-19 06:55:00